DW7346 Weather Reports


Display with metric or nautical units.
time (UTC)temp
F
wind
direction
speed
MPH
gust
MPH
rain 1hr
in
rain 24hr
in
rain mn
in
humidity
%
barometer
mb
20260502163103 69 248 0.0 5.0 0.00 0.00 0.00 51 1020.7
20260502161559 69 284 1.0 4.0 0.00 0.00 0.00 47 1020.7
20260502151533 65 20 1.0 3.0 0.00 0.00 0.00 59 1020.4
20260502123002 51 288 0.0 2.0 0.00 0.00 0.00 92 1019.1
20260502121607 50 288 0.0 1.0 0.00 0.00 0.00 92 1018.8
20260502120114 50 275 0.0 1.0 0.00 0.00 0.00 92 1018.5
20260502114603 50 91 0.0 1.0 0.00 0.00 0.00 92 1018.4
20260502113109 50 91 0.0 1.0 0.00 0.00 0.00 92 1018.3
20260502111553 50 91 0.0 1.0 0.00 0.00 0.00 91 1017.9
20260502110052 50 91 0.0 1.0 0.00 0.00 0.00 90 1017.8
20260502104548 51 91 0.0 2.0 0.00 0.00 0.00 91 1017.6
20260502103048 51 91 0.0 1.0 0.00 0.00 0.00 90 1017.6
20260502101547 52 91 0.0 1.0 0.00 0.00 0.00 89 1017.4
20260502071531 54 94 0.0 0.0 0.00 0.00 0.00 86 1017.3
20260502070033 53 94 0.0 0.0 0.00 0.00 0.00 87 1017.4
20260502064530 53 94 0.0 0.0 0.00 0.00 0.00 86 1017.4
20260502063027 54 94 0.0 0.0 0.00 0.00 0.00 86 1017.5
20260502061525 54 94 0.0 0.0 0.00 0.00 0.00 86 1017.5
20260502060024 55 94 0.0 0.0 0.00 0.00 0.00 86 1017.4
20260502054528 55 94 0.0 0.0 0.00 0.00 0.00 87 1017.3
20260502053021 55 94 1.0 2.0 0.00 0.00 0.00 86 1017.2
20260502051527 56 94 0.0 1.0 0.00 0.00 0.00 86 1017.3
20260502050016 56 94 0.0 0.0 0.00 0.00 0.00 86 1017.4
20260502044515 57 94 0.0 1.0 0.00 0.00 0.00 85 1017.3
20260502043014 57 94 0.0 1.0 0.00 0.00 0.00 84 1017.3
20260502041512 57 94 0.0 0.0 0.00 0.00 0.00 82 1017.2
20260502040009 58 94 0.0 0.0 0.00 0.00 0.00 80 1017.1
20260502034508 58 94 0.0 0.0 0.00 0.00 0.00 78 1016.9
20260502033007 59 94 0.0 1.0 0.00 0.00 0.00 78 1017.1
20260502031506 59 93 0.0 0.0 0.00 0.00 0.00 76 1016.9
20260502030004 60 93 0.0 1.0 0.00 0.00 0.00 73 1016.7
20260502024502 61 93 0.0 2.0 0.00 0.00 0.00 73 1016.6
20260502023100 61 93 0.0 0.0 0.00 0.00 0.00 73 1016.3
20260502021601 61 93 0.0 0.0 0.00 0.00 0.00 73 1016.3
20260502020058 62 93 0.0 1.0 0.00 0.00 0.00 71 1015.9
20260502014557 62 93 0.0 0.0 0.00 0.00 0.00 71 1015.6
20260502013058 63 93 0.0 0.0 0.00 0.00 0.00 67 1015.2
20260502011557 64 93 0.0 1.0 0.00 0.00 0.00 66 1014.8
20260502010058 64 93 0.0 0.0 0.00 0.00 0.00 65 1014.6
20260502004556 64 93 0.0 1.0 0.00 0.00 0.00 64 1014.4
20260502003055 64 93 0.0 2.0 0.00 0.00 0.00 64 1014.4
20260502001557 65 93 0.0 0.0 0.00 0.00 0.00 64 1014.2
20260502000100 66 92 0.0 1.0 0.00 0.00 0.00 64 1014.0
20260501234558 66 92 0.0 1.0 0.00 0.00 0.00 63 1013.7
20260501233055 66 92 0.0 3.0 0.00 0.00 0.00 63 1013.6
20260501231556 66 114 0.0 3.0 0.00 0.00 0.00 62 1013.5
20260501230100 66 99 1.0 3.0 0.00 0.00 0.00 62 1013.4
20260501224552 66 94 0.0 4.0 0.00 0.00 0.00 62 1013.4
20260501223051 66 30 1.0 4.0 0.00 0.00 0.00 62 1013.3
20260501221558 65 32 2.0 5.0 0.00 0.00 0.00 62 1013.2
20260501220052 65 8 2.0 9.0 0.00 0.00 0.00 62 1013.4
20260501214553 65 1 3.0 8.0 0.00 0.00 0.00 62 1013.3
20260501213053 65 1 2.0 7.0 0.00 0.00 0.00 64 1013.3
20260501211549 65 5 1.0 4.0 0.00 0.00 0.00 64 1013.7
20260501210047 65 23 1.0 5.0 0.00 0.00 0.00 64 1014.0
20260501204547 65 4 1.0 5.0 0.00 0.00 0.00 63 1014.2
20260501203053 65 28 0.0 5.0 0.00 0.00 0.00 63 1014.3
20260501201555 65 84 2.0 5.0 0.00 0.00 0.00 61 1014.5
20260501200045 65 65 0.0 7.0 0.00 0.00 0.00 62 1014.4
20260501194546 65 2 2.0 10.0 0.00 0.00 0.00 62 1014.1
20260501193044 64 63 2.0 8.0 0.00 0.00 0.00 61 1014.1
20260501191553 64 331 1.0 9.0 0.00 0.00 0.00 61 1013.8
20260501190050 64 21 2.0 10.0 0.00 0.00 0.00 62 1013.9
20260501184549 66 94 4.0 10.0 0.00 0.00 0.00 60 1013.9
20260501183042 66 360 3.0 7.0 0.00 0.00 0.00 63 1014.1
20260501181611 66 17 3.0 9.0 0.00 0.00 0.00 61 1014.3
20260501180044 66 31 3.0 10.0 0.00 0.00 0.00 61 1014.5